Location: Riverton
(43.0250°N, 108.3790°W)
Time: 11:17:27
(UTC-06:00)

FO-29 - Visible Passes

Search period start: 21 April 2018 00:00
Search period end: 01 May 2018 00:00
Orbit: 801 x 1321 km, 98.5° (Epoch: 20 April)

Date Brightness Start Highest point End Pass type
(mag) Time Alt. Az. Time Alt. Az. Time Alt. Az.
21 Apr 10.2 21:05:39 10° N 21:13:13 75° WNW 21:19:57 10° SSW visible
21 Apr 12.6 22:52:29 10° NNW 22:56:50 17° NW 23:01:01 10° W visible
22 Apr 13.0 05:36:48 10° ENE 05:40:22 14° NE 05:43:58 10° NNE visible
22 Apr 11.5 21:56:11 10° N 22:02:50 36° WNW 22:08:54 10° SW visible
23 Apr 10.1 21:00:48 10° N 21:08:18 79° WNW 21:14:56 10° SSW visible
23 Apr 12.5 22:47:31 10° NNW 22:52:00 17° NW 22:56:15 10° W visible
24 Apr 13.1 05:32:16 10° ENE 05:35:33 13° NE 05:38:52 10° NNE visible
24 Apr 11.4 21:51:18 10° N 21:57:57 37° WNW 22:04:00 10° SW visible
25 Apr 10.0 20:55:57 10° NNE 21:03:22 83° WNW 21:09:54 10° SSW visible
25 Apr 12.5 22:42:34 10° NNW 22:47:09 18° NW 22:51:29 10° W visible
26 Apr 13.2 05:27:48 10° ENE 05:30:45 13° NE 05:33:43 10° NNE visible
26 Apr 11.3 21:46:25 10° N 21:53:04 39° WNW 21:59:04 10° SW visible
27 Apr 9.9 20:51:06 10° NNE 20:58:26 88° WNW 21:04:50 10° SSW visible
27 Apr 12.4 22:37:37 10° NNW 22:42:17 19° NW 22:46:40 10° W visible
28 Apr 13.3 05:23:24 10° ENE 05:25:57 12° NE 05:28:30 10° NNE visible
28 Apr 11.2 21:41:31 10° N 21:48:10 41° WNW 21:54:06 10° SW visible
29 Apr 9.8 20:46:15 10° NNE 20:53:28 88° ESE 20:59:46 10° SSW visible
29 Apr 12.4 22:32:40 10° NNW 22:37:25 19° NW 22:41:51 10° W visible
30 Apr 13.3 05:19:08 10° ENE 05:21:09 11° NE 05:23:10 10° NNE visible
30 Apr 11.1 21:36:38 10° N 21:43:15 43° WNW 21:49:08 10° SW visible
